Regional Weather Roundup
Issued by NWS

Home | Current Version | Previous Version | Graphics & Text | Print | Product List | Glossary On
Versions: 1 2 3 4 5 6 7 8 9 10 11 12 13 14 15 16 17 18 19 20 21 22 23 24 25 26 27 28 29 30 31 32 33 34 35 36 37 38 39 40 41 42 43 44 45 46 47 48 49 50
709
ASUS45 KBOU 200607
RWRCO

WEATHER ROUNDUP FOR COLORADO
NATIONAL WEATHER SERVICE DENVER/BOULDER CO
1200 AM MDT SUN AUG 20 2017

NOTE: "FAIR" INDICATES FEW OR NO CLOUDS BELOW 12000 FEET WITH NO
SIGNIFICANT WEATHER AND/OR OBSTRUCTIONS TO VISIBILITY.

COZ001>005-013-030-031-200700-
...NORTHWEST COLORADO...

CITY           SKY/WX    TMP DP  RH WIND       PRES   REMARKS
CRAIG          FAIR      61  40  45 E3        30.18R
HAYDEN         FAIR      63  33  32 E3        30.22S
MEEKER         FAIR      59  38  45 E8        30.21R
RABBIT EARS PA FAIR      54  32  43 NW6       30.51S
STEAMBOAT SPGS FAIR      59  37  43 E7        30.24R
WALDEN         FAIR      52  28  40 SE3       30.33R
$$

COZ006>008-011-200700-
...WEST CENTRAL VALLEYS...

CITY           SKY/WX    TMP DP  RH WIND       PRES   REMARKS
GRAND JUNCTION FAIR      70  32  24 E5        30.06R
MONTROSE       FAIR      65  40  39 SE9       30.16S
EAGLE          FAIR      60  35  39 SE6       30.25R
RIFLE          FAIR      65  39  38 SE9       30.14R
DELTA          FAIR      71  38  29 NE8       30.12R
NUCLA          FAIR      66  32  28 E10       30.19S
$$

COZ017>023-064>068-200700-
...SOUTHWEST COLORADO...

CITY           SKY/WX    TMP DP  RH WIND       PRES   REMARKS
DURANGO        FAIR      60  36  40 N7        30.20S
CORTEZ         FAIR      58  37  45 NE5       30.14S
PAGOSA SPRINGS FAIR      55  33  42 CALM      30.30S
TELLURIDE      FAIR      56  34  43 SE9       30.43F
WOLF CREEK PAS NOT AVBL
$$

COZ009-010-012-014-032>034-037-058>063-200700-
...CENTRAL COLORADO...

CITY           SKY/WX    TMP DP  RH WIND       PRES   REMARKS
ASPEN          FAIR      55  36  48 SW10      30.32S
BUENA VISTA    FAIR      58  33  39 NW10      30.33R
COPPER MTN     FAIR      54  25  32 CALM      30.64S
BERTHOUD PASS  FAIR      45  41  87 NW13      30.66S
COTTONWOOD PAS FAIR      63  25  23 W8        30.47S
GUNNISON       NOT AVBL
KREMMLING      FAIR      59  36  41 CALM      30.30R
LEADVILLE      FAIR      44  29  55 NE5       30.44F
MONARCH PASS   FAIR      50  25  37 NW9       30.73S
SALIDA         FAIR      59  36  41 W6        30.37R
SUNLIGHT       MOCLDY    55  27  33 CALM      30.57S
WILKERSON PASS FAIR      54  27  35 CALM      30.60F
$$

COZ069>075-200700-
...SAN LUIS VALLEY/SANGRE DE CRISTO MOUNTAINS...

CITY           SKY/WX    TMP DP  RH WIND       PRES   REMARKS
ALAMOSA        FAIR      59  42  53 CALM      30.28R
DEL NORTE      FAIR      58  34  40 W15       30.33R
LA VETA PASS   NOT AVBL
SAGUACHE       FAIR      61  34  36 N9        30.31R
$$

COZ035-036-038>040-200700-
...NORTHERN COLORADO FRONT RANGE...

CITY           SKY/WX    TMP DP  RH WIND       PRES   REMARKS
DENVER INTL AP MOCLDY    72  39  30 SW12      30.09R
DMNS CITY PARK   N/A     67  44  43 E12       30.08S
AURORA         MOCLDY    66  42  41 W7        30.11R
FRONT RANGE AP FAIR      72  39  30 SW10      30.11R
ERIE MUNI ARPT FAIR      70  40  33 SW9       30.11S
BOULDER MUN AP FAIR      70  41  35 W6        30.07S
CENTENNIAL     FAIR      68  40  35 S9        30.12S
BROOMFIELD     NOT AVBL
FORT COLLINS   FAIR      68  50  52 NW8       30.05R
LONGMONT       FAIR      73  40  30 W3        30.06S
$$

COZ041-046-047-076>085-087-088-200700-
...PIKES PEAK/PALMER DIVIDE AND SOUTHERN FOOTHILLS...

CITY           SKY/WX    TMP DP  RH WIND       PRES   REMARKS
COLO. SPRINGS  MOCLDY    66  47  50 N7        30.17F
A. F. ACADEMY  FAIR      59  46  63 N7        30.19F
SCHRIEVER AFB  FAIR      66  42  41 N8        30.17S
CHEYENNE MTN   FAIR      70  39  32 SW6       30.17F
ELLICOTT       NOT AVBL
FALCON         FAIR      60  43  52 NW7       30.22F
FORT CARSON    FAIR      68  44  42 NW7       30.12F
LIMON          FAIR      58  53  84 CALM      30.10S
MONUMENT HILL  FAIR      55  43  62 SW8       30.24F
CANON CITY     CLEAR     70  48  46 W12       30.10S
WALSENBURG     FAIR      68  41  37 SW5       30.14S
TRINIDAD       FAIR      69  45  41 SW7       30.13R
$$

COZ042>045-048>051-090-091-200700-
...NORTHEAST COLORADO...

CITY           SKY/WX    TMP DP  RH WIND       PRES   REMARKS
GREELEY ARPT   FAIR      63  54  72 N5        30.03R
AKRON          FAIR      71  44  37 SW6       30.01R
BURLINGTON     FAIR      72  54  53 SW9       29.99F
WRAY           NOT AVBL
YUMA           FAIR      72  41  33 W7        29.96S
STERLING       FAIR      64  54  68 N3        29.95R
HOLYOKE        FAIR      66  59  77 CALM      29.94R
FORT MORGAN    FAIR      69  38  32 W7        30.01R
$$

COZ086-089-092>099-200700-
...SOUTHEAST COLORADO...

CITY           SKY/WX    TMP DP  RH WIND       PRES   REMARKS
PUEBLO         FAIR      67  48  50 N8        30.03S
LA JUNTA       FAIR      69  51  52 SW6       30.00S
LAMAR          FAIR      63  53  70 CALM      29.97R
SPRINGFIELD      N/A     60  58  92 S5        30.06R
$$




USA.gov is the U.S. government's official web portal to all federal, state and local government web resources and services.